Regional Weather Roundup
Issued by NWS Upton, NY

Current Version | Previous Version | Text Only | Print | Product List | Glossary On
Versions: 1 2 3 4 5 6 7 8 9 10 11 12 13 14 15 16 17 18 19 20 21 22 23 24 25 26 27 28 29 30 31 32 33 34 35 36 37 38 39 40 41 42 43 44 45 46 47 48 49 50
000
ASUS41 KOKX 222318
RWROKX

REGIONAL WEATHER ROUNDUP
NATIONAL WEATHER SERVICE NEW YORK NY
700 PM EDT FRI MAY 22 2015

NOTE: "FAIR" INDICATES FEW OR NO CLOUDS BELOW 12,000 FEET WITH NO
SIGNIFICANT WEATHER AND/OR OBSTRUCTIONS TO VISIBILITY.

NYZ071-072-176-178-NJZ106-104-230000-
NEW YORK CITY METRO AREA


CITY           SKY/WX    TMP DP  RH WIND       PRES   REMARKS
CENTRAL PARK   MOSUNNY   70  39  32 W14G29    29.99R
LAGUARDIA APRT MOSUNNY   71  38  29 W14G28    29.95R
KENNEDY INTL   PTSUNNY   71  38  29 W16G25    29.98R
NEWARK/LIBERTY MOSUNNY   70  40  33 W18       29.97R
BRNX BOT. GARD   N/A     70  37  30 SW15      29.96R
TETERBORO      MOSUNNY   71  37  28 W12G20    29.95R
$$

NYZ177-179-078>081-230000-
LONG ISLAND NEW YORK

CITY           SKY/WX    TMP DP  RH WIND       PRES   REMARKS
FARMINGDALE    PTSUNNY   70  37  29 W12G20    29.96R
ISLIP          PTSUNNY   69  40  34 W10       29.94R
SHIRLEY        CLOUDY    71  39  31 W14       29.96R
WESTHAMPTON    CLOUDY    69  39  33 W8        29.96R
MONTAUK POINT    N/A     67  42  40 W12       29.94R
$$

NYZ052-065-067-230000-
HUDSON VALLEY

CITY           SKY/WX    TMP DP  RH WIND       PRES   REMARKS
WHITE PLAINS   PTSUNNY   67  37  33 NW8       29.96R
NEWBURGH       SUNNY     66  37  34 NW17G28   29.99R
MONTGOMERY     SUNNY     66  33  29 NW10G18   29.98R
POUGHKEEPSIE   SUNNY     67  28  23 NW13G21   29.97R
ALBANY         MOSUNNY   60  26  27 W16G23    30.02R
$$

NJZ001-105-106-008-010-013-015-019>022-104-230000-
NEW JERSEY

CITY           SKY/WX    TMP DP  RH WIND       PRES   REMARKS
NEWARK/LIBERTY MOSUNNY   70  40  33 W18       29.97R
TETERBORO      MOSUNNY   71  37  28 W12G20    29.95R
CALDWELL       MOSUNNY   69  39  33 W10       29.97R
MORRISTOWN     MOSUNNY   70  45  40 W8        29.98R
SOMERVILLE     MOSUNNY   68  43  40 VRB7      29.98R
SUSSEX         SUNNY     67  35  30 NW7       29.99R
ANDOVER          N/A     65  40  39 CALM      30.00R
TRENTON        MOSUNNY   68  44  42 W9        29.99S
MILLVILLE      MOSUNNY   70  45  40 W10       30.03R
ATLANTIC CITY  SUNNY     72  42  34 W16G22    30.01S
WRIGHTSTOWN    MOSUNNY   68  45  42 NW8       29.98R
TOMS RIVER     MOSUNNY  N/A N/A N/A NW16G24   30.00R
BELMAR         CLOUDY    66  41  39 NW13G18   30.00R
$$

PAZ047>061-062-071-230000-
EASTERN PENNSYLVANIA

CITY           SKY/WX    TMP DP  RH WIND       PRES   REMARKS
PHILADELPHIA   MOSUNNY   74  37  26 W17G25    30.02R
ALLENTOWN      MOSUNNY   68  46  45 W8        30.00S
SCRANTON       MOSUNNY   66  22  18 N21G29    30.01R
$$

CTZ002-004>006-009-010-012-RIZ004-006-007-MAZ004-011-015-230000-
SOUTHERN NEW ENGLAND
 IN CT

CITY           SKY/WX    TMP DP  RH WIND       PRES   REMARKS
BRADLEY INTL   MOSUNNY   66  28  24 NW12      29.95R
HARTFORD       SUNNY     67  29  24 NW8G20    29.94R
DANBURY        SUNNY     66  27  23 NW10G20   29.97R
WTRBRY/OXFORD  SUNNY     64  28  25 N12G23    29.97R
BRIDGEPORT     SUNNY     71  32  23 NW15G25   29.94R
MERIDEN        SUNNY     70  30  22 NW14G21   29.94R
NEW HAVEN      MOSUNNY   69  33  26 NW12G22   29.94R
CHESTER        FAIR      66  32  28 NW9       29.95R
GROTON         SUNNY     70  32  24 NW15G24   29.91R
WILLIMANTIC    SUNNY     67  29  24 NW10G20   29.94R

 IN RI

CITY           SKY/WX    TMP DP  RH WIND       PRES   REMARKS
PROVIDENCE     MOSUNNY   69  30  23 NW14G26   29.91R
BLOCK ISLAND   SUNNY     59  46  63 SW14G21   29.93R
WESTERLY       SUNNY     70  33  25 VRB6      29.92R

 IN MA

CITY           SKY/WX    TMP DP  RH WIND       PRES   REMARKS
BOSTON         MOSUNNY   69  27  20 W17G30    29.89R
WORCESTER      SUNNY     62  22  21 W17G26    29.94R
WESTFIELD      SUNNY     65  25  22 NW20G29   29.96
PROVINCETOWN   PTCLDY    63  45  51 W10       29.87R
NANTUCKET      CLEAR     58  48  69 SW18      29.90R
$$

ANZ330-335-338-340-345-350-353-355-230000-
COASTAL MARINE OBSERVATIONS


STATION/POSITION TIME  SKY/WX   TEMP    WIND        PRES    VSBY  WAVE
                                AIR SEA DIR/SP/G                  HT/PER
                 (UTC)          (F)     (DEG/KT/KT) (MB)    (MI)  (FT/S)
NY HARB ENTRANCE 2250            61 57  280/  8/ 10 1015.1          2/ 3
4S FIRE IS       2203               55                N/A           2/ 4
20S FIRE ISLAND  2250            60 56  280/  6/  8 1014.8          2/ 8
GREAT SOUTH BAY  2200            67 64  280/ 10/ 17   N/A
23SW MTP         2250            57 54  240/ 12/ 14 1013.7          3/ 8
HUDSON CANYON    NOT AVBL
KINGS POINT      2200            68 54  330/ 12/ 16 1013.5
CENTRAL LI SOUND 2230            61 53  280/ 10/ 12   N/A
EASTERN LI SOUND 2200            58     260/ 14/ 16   N/A
ROBBINS REEF     2200            69     310/ 20/ 23 1013.2
$$


>>>>>>>>>>>>>>>>>>>>>>>>>>>> KEY <<<<<<<<<<<<<<<<<<<<<<<<<<<
>                                                          <
>     SKY/WX - SKY CONDITION/PRESENT WEATHER               <
>     TMP    - TEMPERATURE IN FAHRENHEIT                   <
>     DP     - DEWPOINT IN FAHRENHEIT                      <
>     RH     - RELATIVE HUMIDITY IN PERCENT                <
>     WIND   - DIRECTION AND SPEED IN MPH                  <
>     PRES   - MEAN SEA LEVEL PRESSURE IN INCHES OF HG     <
>     WCI    - WIND CHILL INDEX                            <
>     VSB    - VISIBILITY IN MILES                         <
>     HX     - HEAT INDEX                                  <
>     TC     - TEMPERATURE IN CELSIUS                      <
>     VRB    - VARIABLE WIND DIRECTION                     <
>                                                          <
>>>>>>>>>>>>>>>>>>>>>>>>>>>> KEY <<<<<<<<<<<<<<<<<<<<<<<<<<<





USA.gov is the U.S. government's official web portal to all federal, state and local government web resources and services.